Theta_e
356 351 350 341 333 343 345 343 346 345 346 343 342 343 342 342 338 336 331 331 331 328
357 353 351 340 331 339 346 348 345 344 344 343 344 344 343 338 336 332 330 331 328 325
356 356 354 344 334 346 347 345 345 346 344 346 345 343 340 337 333 331 328 329 323 322
359 355 354 351 347 350 347 346 347 346 345 343 341 337 333 332 330 324 321 324 320 319
357 353 354 349 350 350 350 349 348 347 343 340 337 332 330 328 324 320 321 318 317 315
357 354 352 346 351 351 350 350 349 345 339 331 331 330 327 322 321 320 318 317 315 312
353 354 349 347 348 348 349 347 346 340 334 330 328 323 321 322 321 319 316 315 315 313
354 351 348 345 345 343 346 343 340 336 329 320 320 322 321 322 320 317 316 314 313 313
350 345 343 341 335 335 342 340 336 326 318 311 318 325 329 322 317 317 315 313 311 311
346 341 338 335 333 335 338 334 328 321 315 312 313 324 329 328 316 315 314 312 312 313
345 340 339 338 336 334 332 329 325 320 315 312 314 321 322 326 316 314 314 314 314 313
342 340 338 336 334 331 328 327 324 319 314 310 309 317 317 318 315 313 313 314 313 313
342 341 336 333 332 331 328 325 323 317 313 315 307 315 315 313 314 314 315 315 315 322
341 339 336 335 335 331 327 323 320 316 311 312 310 307 313 313 309 310 310 310 315 318
Wind_Speed
8 5 9 7 5 4 5 5 6 6 6 6 5 5 3 4 3 5 4 7 6 4
7 8 6 8 5 5 5 6 6 7 6 5 5 6 7 4 4 5 6 6 7 4
8 7 8 6 7 6 8 7 7 6 6 6 6 7 6 4 5 7 4 5 7 6
7 7 6 7 8 9 9 7 8 7 7 6 7 6 7 6 7 7 7 7 7 7
5 6 7 7 9 10 8 8 7 7 7 7 6 7 7 7 6 7 7 6 8 7
8 10 8 6 8 9 10 9 8 7 6 7 7 7 7 7 7 7 6 7 7 5
7 7 7 12 5 6 9 11 10 5 5 7 7 6 6 7 6 7 6 6 7 5
7 5 8 10 13 17 15 10 8 7 5 6 6 3 5 7 6 7 5 6 6 4
7 9 11 13 15 15 10 10 7 5 7 6 4 4 9 9 6 6 6 6 5 5
12 11 10 12 10 11 9 9 9 7 6 6 5 7 10 12 6 6 5 5 5 3
14 12 10 10 11 10 8 10 8 7 6 6 4 7 11 9 7 5 4 4 4 4
13 13 10 10 10 7 8 6 6 6 7 7 4 8 10 7 2 3 4 3 2 2
12 15 11 10 10 7 6 6 6 6 6 8 6 7 7 3 0 3 3 4 4 6
11 12 13 10 7 9 7 7 6 6 5 6 6 4 5 5 4 3 2 2 2 4
Wind_Direction
180 160 168 152 172 159 153 152 163 143 141 145 133 111 80 90 90 60 56 53 40 48
171 168 155 181 145 154 142 147 160 142 146 143 108 81 87 89 74 69 59 55 53 49
171 181 160 158 154 149 140 150 144 126 129 115 93 79 89 79 59 67 49 63 59 38
174 172 144 153 155 154 149 152 123 120 108 103 94 83 77 81 75 71 57 54 52 39
155 146 159 146 146 148 139 118 119 101 105 101 95 86 87 82 86 85 80 68 57 44
166 163 184 149 144 135 118 111 85 96 98 91 97 91 84 89 95 88 97 93 88 72
163 152 168 132 205 121 121 107 90 55 96 90 81 93 99 95 99 90 95 93 87 73
121 152 91 101 85 66 44 65 88 111 88 92 85 69 115 102 108 104 111 91 80 78
118 103 110 116 112 124 141 138 123 89 110 101 95 89 105 105 101 92 89 118 119 79
111 107 115 121 120 132 137 127 116 114 108 113 115 77 113 120 108 111 102 111 123 102
121 122 126 124 126 128 133 129 127 120 128 129 98 83 72 109 124 117 142 167 159 150
130 125 124 127 129 128 124 117 118 131 137 130 115 86 63 63 93 176 185 209 202 173
138 131 134 137 137 133 118 118 126 129 132 146 150 111 93 84 253 169 286 268 240 242
137 134 139 142 137 137 130 123 117 121 136 152 159 157 113 67 83 114 118 90 349 228